User: anonymous   Login
Location: Caltech
(34.1382°N, 118.1253°W)
Time: 00:57:09
(UTC-07:00)
Language:

IRS-1A Rocket - Orbit

View from above orbital plane
View from above orbital plane
View from above satellite
View from above satellite

Ground track
Ground track

The orbit data is extracted from the following two-line orbital elements,

1 18961U 88021B   17143.60409507 +.00000228 +00000-0 +18232-3 0  9992
2 18961 099.3349 151.0263 0054220 295.0532 170.4379 14.00713179491975
Epoch (UTC): 23 May 2017 14:29:53
Eccentricity: 0.0054220
inclination: 99.3349°
perigee height: 852 km
apogee height: 931 km
right ascension of ascending node: 151.0263°
argument of perigee: 295.0532°
revolutions per day: 14.00713179
mean anomaly at epoch: 170.4379°
orbit number at epoch: 49197

The dashed part of the orbit path shows where the satellite is in the earth's shadow,  

DLR